sat.trackr.live / text

‹ back to catalog

STARLINK-31013

NORAD 58526 · 2023-191U

PAYLOAD ACTIVE UNKNOWN

§ Identity

Operator
Country
US
Launch date
2023-12-07
Launch site
AFETR
Launch vehicle
Mass (kg)
RCS (m²)

Purposes: comms

External: N2YO · Heavens-Above · Gunter

§ Orbital elements

Epoch: 2026-05-25T02:33:09.769248Z

Period
95.44 min
Inclination
43.0011°
Eccentricity
0.0006293
Mean motion
15.08763130 rev/d
Perigee alt
535.6 km
Apogee alt
544.3 km
Semi-major
6,918.1 km
B*
1.0861e-3
RAAN
46.7431°
Arg perigee
201.2123°
Mean anomaly
158.8461°
Rev number
13,698

§ Raw data

STARLINK-310131 58526U 23191U   26145.10636307  .00017185  00000+0  10861-2 0  99952 58526  43.0011  46.7431 0006293 201.2123 158.8461 15.08763130136987

JSON: /api/v1/satellites/58526 · /tle

For live sub-satellite position, see the globe view (requires WebGL).

§ Visibility from observer

Set your observer location to see the next 7 days of passes ≥ 10°. The values pass through the URL so the page stays shareable.

No JS? Fill the form by hand. The geolocation button needs JavaScript.